Location: Unspecified
(0.0000°N, 0.0000°E)
Time: 08:44:59
(UTC+01:00)

Cosmos 1125 Rocket - Visible Passes

Search period start: 31 October 2014 00:00
Search period end: 10 November 2014 00:00
Orbit: 759 x 781 km, 74.0° (Epoch: 30 October)

Date Brightness Start Highest point End Pass type
(mag) Time Alt. Az. Time Alt. Az. Time Alt. Az.
31 Oct 3.4 04:58:00 57° N 04:59:07 87° ENE 05:04:26 10° SSE visible
01 Nov 4.7 04:23:24 40° E 04:23:24 40° E 04:27:44 10° SSE visible
01 Nov 5.4 06:03:46 10° W 06:04:35 11° WSW 06:05:45 10° WSW visible
02 Nov 6.1 03:48:39 16° ESE 03:48:39 16° ESE 03:50:18 10° SE visible
02 Nov 4.8 05:29:01 22° WSW 05:29:01 22° WSW 05:32:15 10° SSW visible
03 Nov 4.8 04:54:09 28° SSW 04:54:09 28° SSW 04:56:49 10° S visible
04 Nov 5.6 04:19:10 20° SSE 04:19:10 20° SSE 04:20:42 10° SSE visible
